Regional Weather Roundup
Issued by NWS

Home | Current Version | Previous Version | Text Only | Print | Product List | Glossary On
Versions: 1 2 3 4 5 6 7 8 9 10 11 12 13 14 15 16 17 18 19 20 21 22 23 24 25 26 27 28 29 30 31 32 33 34 35 36 37 38 39 40 41 42 43 44 45 46 47 48 49 50
000
ASUS44 KOUN 240310
RWROK

WEATHER ROUNDUP FOR OKLAHOMA
NATIONAL WEATHER SERVICE NORMAN OK
1000 PM CDT TUE MAY 23 2017

NOTE: "FAIR" INDICATES FEW OR NO CLOUDS BELOW 12,000 FEET WITH NO
      SIGNIFICANT WEATHER AND/OR OBSTRUCTIONS TO VISIBILITY.

OKZ001>007-009>012-014-015-017-240400-
NORTHWEST OKLAHOMA AND THE PANHANDLE

CITY           SKY/WX    TMP DP  RH WIND       PRES   REMARKS
GAGE           MOCLDY    54  46  74 NW7       29.97R
GUYMON         CLEAR     53  43  68 NW3       30.01R
$$

OKZ016-021>023-033>039-044-045-240400-
SOUTHWEST OKLAHOMA

CITY           SKY/WX    TMP DP  RH WIND       PRES   REMARKS
LAWTON/REGL    CLEAR     56  49  77 W5        29.92R
LAWTON/FT SILL CLEAR     61  45  56 W3        29.91R
FREDERICK      CLEAR     61  45  55 NW6       29.91S
CLINTON        MOCLDY    55  46  71 NW7       29.95S
HOBART         CLEAR     57  46  66 NW7       29.94S
ALTUS AFB      PTCLDY    61  41  48 NW3       29.94F
$$

OKZ018>020-024>031-240400-
CENTRAL OKLAHOMA

CITY           SKY/WX    TMP DP  RH WIND       PRES   REMARKS
OKLAHOMA CITY  CLOUDY    61  44  53 N14       29.89S
OKC/WILEY POST CLOUDY    59  48  67 N13       29.90R
OKC/TINKER AFB CLOUDY    61  46  56 N14       29.89R
STILLWATER     CLOUDY    56  45  66 NW6       29.88F
GUTHRIE        CLOUDY    58  46  64 NW3       29.89F
$$

OKZ008-013-054>072-240400-
NORTHEAST OKLAHOMA

CITY           SKY/WX    TMP DP  RH WIND       PRES   REMARKS
TULSA          CLOUDY    62  46  55 NW10      29.82S
TULSA/JONES    CLOUDY    63  41  44 N6        29.84S
PONCA CITY     CLEAR     55  47  74 VRB6      29.88S
BARTLESVILLE   CLOUDY    57  45  64 CALM      29.86R
MUSKOGEE       CLOUDY    60  51  72 NW8       29.83R
$$

OKZ032-040>043-046>053-073>077-240400-
SOUTH CENTRAL/SOUTHEAST OKLAHOMA

CITY           SKY/WX    TMP DP  RH WIND       PRES   REMARKS
ARDMORE/DWNTWN CLEAR     55  50  82 CALM      29.89S
MCALESTER      PTCLDY    60  54  80 W5        29.84S
$$




USA.gov is the U.S. government's official web portal to all federal, state and local government web resources and services.